User: anonymous
Location: Fort Wayne
(41.1310°N, 85.1290°W)
Time: 22:36:03
(UTC-04:00)
Language:

Cosmos 2082 - Orbit

View from above orbital plane
View from above orbital plane
View from above satellite
View from above satellite

Ground track
Ground track

The orbit data is extracted from the following two-line orbital elements,

1 20624U 90046A   14213.46481800  .00000370  00000-0  21903-3 0  9780
2 20624 071.0386 253.5993 0015326 197.1471 260.1645 14.14077341248655
Epoch (UTC): 01 August 2014 11:09:20
Eccentricity: 0.0015326
inclination: 71.0386°
perigee height: 834 km
apogee height: 856 km
right ascension of ascending node: 253.5993°
argument of perigee: 197.1471°
revolutions per day: 14.14077341
mean anomaly at epoch: 260.1645°
orbit number at epoch: 24865

The dashed part of the orbit path shows where the satellite is in the earth's shadow,  

DLR